Regional Weather Roundup
Issued by NWS Midland/Odessa, TX

Home | Current Version | Previous Version | Text Only | Print | Product List | Glossary On
Versions: 1 2 3 4 5 6 7 8 9 10 11 12 13 14 15 16 17 18 19 20 21 22 23 24 25 26 27 28 29 30 31 32 33 34 35 36 37 38 39 40 41 42 43 44 45 46 47 48 49 50
000
ASUS44 KMAF 172310
RWRMAF
MIDLAND AREA WEATHER ROUNDUP
NATIONAL WEATHER SERVICE MIDLAND TX
600 PM CDT TUE OCT 17 2017

...IN SOUTHWEST TEXAS AND SOUTHEAST NEW MEXICO...

CITY           SKY/WX    TMP DP  RH WIND       PRES   REMARKS
ALPINE         SUNNY     80  38  22 S7        30.25F
ANDREWS        FAIR      78  42  27 S10       30.14F
ARTESIA        SUNNY     81  41  24 S12G17    30.11S
BIG SPRING     SUNNY     78  39  24 S7        30.15F
CARLSBAD       SUNNY     81  47  30 S13       30.09F
DRYDEN           N/A     78  41  26 SE10      30.13F
FORT STOCKTON  SUNNY     80  43  26 E14       30.12F
GUAD PASS      SUNNY     78  36  21 W13       30.25F
HOBBS          SUNNY     77  39  25 S10       30.14F
LAMESA         FAIR      77  37  24 S15G24    30.14F
MARFA          SUNNY     78  41  26 SE10      30.23F
MIDLAND AIRPK  SUNNY     79  37  22 S10       30.14F
MIDLAND INTL   SUNNY     79  39  23 S13       30.13F
ODESSA         NOT AVBL
PECOS          SUNNY     81  50  34 E12       30.10F
PRESIDIO       FAIR      86  44  22 S6        30.12F
SEMINOLE       SUNNY     79  40  24 S9        30.14F
SNYDER         SUNNY     79  34  19 S12       30.13F
WINK           SUNNY     80  45  28 SE10      30.10F
$$
...OTHER STATIONS IN TEXAS...

CITY           SKY/WX    TMP DP  RH WIND       PRES   REMARKS
ABILENE        SUNNY     76  36  23 S9        30.13F
AMARILLO       SUNNY     79  36  21 S15       30.07F
AUSTIN         SUNNY     76  45  33 E6        30.14F
BROWNSVILLE    SUNNY     79  63  57 NE12      30.11S
CORPUS CHRISTI SUNNY     79  49  34 E6        30.12F
DALLAS FTW     CLEAR     75  40  28 SE8       30.13F
DEL RIO        SUNNY     77  44  30 SE9       30.13F
EL PASO        PTSUNNY   82  41  23 CALM      30.13F
HOUSTON INT    CLEAR     75  47  36 N9        30.14S
LUBBOCK        MOSUNNY   79  37  22 S15       30.11F
SAN ANGELO     SUNNY     80  33  18 S10       30.13F
SAN ANTONIO    SUNNY     77  43  29 SE3       30.16S
WACO           SUNNY     76  39  26 CALM      30.15F
WICHITA FALLS  CLEAR     71  47  42 S14       30.05F
$$
...OTHER LOCATIONS IN NEW MEXICO...

CITY           SKY/WX    TMP DP  RH WIND       PRES   REMARKS
ALAMOGORDO     SUNNY     81  37  21 W3        30.16F
ALBUQUERQUE    MOSUNNY   75  20  12 CALM      30.21F
CANNON AFB     SUNNY     78  36  22 S13       30.12F
CLOVIS         SUNNY     78  37  22 SW14      30.12F
HOLLOMAN AFB   SUNNY     81  37  21 CALM        N/A
ROSWELL        SUNNY     80  36  20 S9        30.11F
RUIDOSO        SUNNY     70  25  18 NW10      30.31F
SANTA FE       SUNNY     71  24  17 W8        30.25F
TRUTH OR CONSE SUNNY     80  37  21 S9        30.17F
TUCUMCARI      SUNNY     82  40  22 SW14      30.05F
$$




USA.gov is the U.S. government's official web portal to all federal, state and local government web resources and services.